Temp
8 7 8 8 9 9 8 8 8 8 8 7 8 8 7 7 7 7 7 6 6 6
10 8 6 7 6 7 8 7 7 7 6 7 7 7 7 7 7 6 6 6 5 4
9 9 7 7 7 8 7 6 6 5 6 7 6 6 6 6 6 6 5 5 4 3
8 9 7 8 7 6 5 5 5 5 6 6 6 6 5 5 5 5 4 4 3 3
7 8 7 6 5 6 4 4 5 6 5 5 5 5 4 5 4 4 3 3 3 2
8 8 6 5 5 4 4 5 5 4 5 5 4 4 4 4 3 3 3 3 2 2
7 6 5 5 4 4 4 5 5 4 4 4 4 3 3 3 3 3 2 2 1 1
6 5 4 4 3 3 4 4 4 4 4 3 3 3 3 2 2 2 2 1 1 0
5 4 4 3 3 3 3 4 4 4 3 3 2 2 2 2 1 1 1 1 1 0
4 4 3 4 3 4 3 4 3 3 2 2 2 1 1 1 1 1 0 -0 -1 -1
5 4 3 3 3 3 3 3 2 2 2 1 1 1 1 1 0 -0 -1 -1 -2 -3
4 3 3 3 3 2 2 2 2 1 1 1 1 1 1 0 -0 -1 -2 -3 -3 -4
3 4 3 3 3 2 2 1 1 1 1 1 1 0 -0 -1 -2 -2 -3 -3 -4 -5
3 3 3 3 2 1 1 1 1 1 0 0 -0 -1 -1 -2 -3 -3 -4 -5 -6 -6
Height
1474 1485 1491 1498 1497 1502 1504 1509 1512 1515 1520 1522 1522 1525 1527 1526 1525 1527 1529 1528 1530 1531
1460 1475 1488 1494 1499 1500 1501 1505 1509 1511 1518 1520 1518 1523 1524 1525 1522 1524 1526 1527 1529 1530
1456 1464 1481 1487 1492 1492 1496 1498 1504 1509 1511 1516 1517 1521 1524 1522 1521 1521 1524 1526 1527 1529
1454 1456 1468 1477 1482 1489 1495 1497 1504 1511 1513 1513 1515 1520 1522 1519 1518 1518 1522 1526 1526 1526
1448 1454 1461 1471 1477 1485 1492 1499 1504 1507 1511 1511 1516 1520 1519 1515 1516 1518 1521 1523 1524 1523
1445 1451 1457 1467 1474 1483 1492 1499 1504 1507 1507 1511 1514 1516 1515 1514 1516 1518 1519 1521 1521 1520
1441 1449 1460 1463 1473 1481 1489 1497 1500 1504 1506 1509 1511 1513 1512 1513 1513 1515 1517 1518 1517 1515
1440 1451 1459 1466 1474 1484 1487 1496 1497 1500 1503 1505 1509 1510 1510 1509 1510 1513 1514 1514 1512 1510
1444 1452 1458 1466 1476 1484 1490 1490 1497 1496 1499 1503 1507 1508 1506 1506 1508 1510 1509 1508 1506 1505
1447 1453 1463 1472 1479 1481 1488 1491 1493 1495 1498 1501 1505 1505 1503 1503 1504 1504 1503 1501 1499 1498
1448 1454 1462 1470 1478 1482 1486 1489 1492 1493 1497 1501 1501 1501 1500 1499 1499 1499 1498 1496 1494 1491
1450 1456 1463 1471 1476 1481 1484 1487 1488 1491 1495 1497 1497 1496 1496 1496 1494 1493 1490 1490 1489 1485
1453 1459 1464 1469 1475 1479 1482 1485 1486 1489 1492 1492 1493 1493 1492 1490 1487 1489 1485 1483 1482 1481
1454 1460 1465 1469 1473 1476 1479 1482 1485 1487 1488 1488 1488 1487 1486 1485 1484 1480 1479 1480 1475 1471
Wind_Speed
41 29 30 32 30 28 23 18 17 15 15 14 11 8 7 5 3 1 3 4 4 5
44 38 28 29 28 24 23 22 21 19 15 14 12 10 7 4 1 0 2 3 4 6
41 36 34 34 32 28 26 24 19 18 20 16 12 8 6 4 2 1 2 4 5 7
37 29 43 42 38 31 25 22 24 22 18 13 10 9 7 4 2 1 2 5 7 9
45 43 44 39 33 26 24 25 23 20 16 12 10 9 6 2 1 1 3 6 9 12
41 40 40 35 28 26 25 23 20 17 13 12 10 6 3 2 1 3 6 9 12 15
37 36 34 32 30 28 24 21 19 14 12 10 8 5 4 3 4 7 9 12 15 17
36 34 32 30 27 26 24 21 16 15 12 9 7 6 6 6 8 11 13 15 17 20
35 32 28 26 25 22 22 18 16 12 11 10 9 7 7 9 11 14 17 20 22 23
29 29 26 26 27 26 20 17 15 14 12 10 10 8 9 12 16 19 22 24 25 25
29 30 32 29 24 20 19 17 17 14 13 11 10 11 13 17 21 23 24 25 25 24
33 33 29 25 22 21 20 17 15 13 11 10 11 14 18 22 24 25 25 24 23 23
28 25 23 20 21 19 18 16 13 11 10 12 15 18 20 22 24 25 24 23 22 21
24 20 19 20 19 17 15 13 11 12 13 15 18 20 22 23 23 22 21 21 20 19
Wind_Direction
205 210 210 204 195 192 186 187 183 186 194 185 179 181 167 159 137 80 332 348 342 338
205 208 217 209 197 193 178 181 183 184 198 196 183 185 185 199 167 58 3 356 346 338
200 202 219 216 212 204 193 190 190 179 184 187 178 184 196 183 137 81 8 337 327 322
181 187 203 205 199 189 186 172 174 181 180 175 180 189 196 170 141 50 341 314 314 312
196 194 198 190 180 175 167 172 178 178 179 178 188 187 186 158 72 355 307 306 308 312
193 193 180 172 160 161 171 173 174 176 177 180 183 192 186 182 265 295 310 310 311 313
182 171 164 155 159 166 172 177 174 181 181 184 190 203 221 253 288 304 305 308 311 312
158 156 155 156 160 167 171 179 179 178 182 192 208 223 249 281 296 300 305 309 310 311
151 151 153 159 171 176 179 175 182 181 193 205 222 243 272 291 298 304 310 311 310 308
156 154 162 169 176 178 181 180 184 188 195 214 232 254 282 297 305 309 311 311 310 309
166 163 162 169 174 177 182 184 188 191 203 224 252 277 294 303 306 307 309 310 310 309
163 164 166 171 176 181 182 188 198 207 222 247 277 293 298 301 305 307 309 309 309 307
165 169 170 175 180 186 192 199 206 224 251 272 284 292 301 305 308 306 307 306 305 311
167 173 179 182 187 192 198 208 228 252 269 284 294 301 305 306 303 306 306 306 315 319